Flag for Moldova Weather past 2 weeks in Bălți, Moldova

Now
66 °F

Mild.


Feels Like: 66 °F
Forecast: 46 / 79 °F
Wind: No wind

Location: Baltsi-Leadoveni - The North of Moldova

Current Time: Aug 29, 2014 at 11:05:44 PM

Latest Report: Aug 29, 2014 at 10:00 PM


Visibility: N/A

Pressure: 30.15 "Hg

Humidity: 46%

Dew point: 45 °F

Location of BălțiLocation

Historic Weather in Bălți — Graph

°F

Bălți temperature yesterday

Maximum temperature yesterday: 66 °F (at 4:30 PM)
Minimum temperature yesterday: 54 °F (at 7:30 AM)
Average temperature yesterday: 60 °F

Past Weeks' High & Low Weather Summary

 TemperatureHumidityPressure
High86 °F (Aug 20, 3:00 PM)100% (Aug 21, 9:00 PM)30.15 "Hg (Aug 21, 9:00 PM)
Low50 °F (Aug 25, 6:30 AM)30% (Aug 19, 5:00 PM)29.71 "Hg (Aug 27, 5:00 PM)
Average66 °F66%29.95 "Hg
* Reported Aug 14 10:00 PM — Aug 29 10:00 PM, Bălți, Weather by CustomWeather, © 2014

Note: Actual official high and low records may vary slightly from our data, if they occured in-between our weather recording intervals... More about our weather records

Advertising

Bălți weather history for previous 24 hours

 ConditionsComfort  
Time TempWeatherWind HumidityBarometerVisibility
10:00 PM
Aug 29
66 °FMild.No wind46%30.15 "HgN/A
9:30 PM66 °FMild.No wind46%30.15 "HgN/A
9:00 PM66 °FMild.2 mph46%30.12 "HgN/A
8:30 PM66 °FMild.3 mph49%30.12 "HgN/A
8:00 PM66 °FMild.5 mph49%30.12 "HgN/A
7:30 PM68 °FMild.6 mph46%30.12 "HgN/A
7:00 PM70 °FMild.7 mph40%30.12 "HgN/A
6:30 PM70 °FPassing clouds.9 mph40%30.12 "HgN/A
6:00 PM72 °FPassing clouds.10 mph38%30.12 "HgN/A
5:30 PM72 °FPassing clouds.9 mph38%30.12 "HgN/A
5:00 PM72 °FPassing clouds.13 mph38%30.12 "HgN/A
4:30 PM72 °FScattered clouds.12 mph41%30.12 "HgN/A
4:00 PM72 °FScattered clouds.10 mph41%30.12 "HgN/A
3:30 PM70 °FScattered clouds.14 mph43%30.12 "HgN/A
3:00 PM72 °FScattered clouds.14 mph44%30.12 "HgN/A
2:30 PM68 °FBroken clouds.10 mph46%30.12 "HgN/A
2:00 PM70 °FScattered clouds.15 mph46%30.12 "HgN/A
1:30 PM70 °FScattered clouds.12 mph50%30.15 "HgN/A
1:00 PM70 °FScattered clouds.14 mph50%30.15 "HgN/A
12:30 PM70 °FScattered clouds.14 mph46%30.15 "HgN/A
12:00 PM68 °FPassing clouds.13 mph49%30.15 "HgN/A
11:30 AM68 °FSunny.13 mph49%30.15 "Hg10 mi
11:00 AM66 °FSunny.12 mph56%30.15 "Hg10 mi
10:30 AM66 °FPassing clouds.14 mph56%30.15 "HgN/A
10:00 AM64 °FSunny.10 mph60%30.15 "Hg10 mi
9:30 AM61 °FSunny.10 mph63%30.15 "Hg10 mi
9:00 AM59 °FSunny.9 mph72%30.15 "Hg10 mi
8:30 AM55 °FSunny.9 mph77%30.12 "Hg10 mi
8:00 AM54 °FCool.9 mph82%30.12 "HgN/A
7:30 AM52 °FCool.8 mph88%30.12 "HgN/A
7:00 AM52 °FCool.9 mph88%30.12 "HgN/A
6:30 AM52 °FCool.9 mph82%30.12 "HgN/A
6:00 AM52 °FCool.10 mph88%30.12 "HgN/A
5:30 AM52 °FCool.9 mph88%30.09 "HgN/A
5:00 AM52 °FCool.9 mph88%30.09 "HgN/A
4:30 AM52 °FCool.10 mph88%30.09 "HgN/A
4:00 AM52 °FCool.9 mph88%30.09 "HgN/A
3:30 AM52 °FCool.9 mph88%30.09 "HgN/A
3:00 AM54 °FCool.8 mph82%30.09 "HgN/A
2:30 AM54 °FCool.9 mph82%30.09 "HgN/A
2:00 AM54 °FCool.8 mph82%30.09 "HgN/A
1:30 AM55 °FCool.8 mph77%30.09 "HgN/A
1:00 AM55 °FCool.9 mph77%30.09 "HgN/A
12:30 AM55 °FCool.8 mph77%30.09 "HgN/A
12:00 AM55 °FCool.10 mph77%30.09 "HgN/A
11:30 PM
Aug 28
55 °FCool.12 mph77%30.09 "HgN/A
11:00 PM55 °FCool.12 mph77%30.09 "HgN/A
Weather by CustomWeather, © 2014

See weather overviewHow to use our weather pages